Date,TemperatureHighF,TemperatureAvgF,TemperatureLowF,DewpointHighF,DewpointAvgF,DewpointLowF,HumidityHigh,HumidityAvg,HumidityLow,PressureMaxIn,PressureMinIn,WindSpeedMaxMPH,WindSpeedAvgMPH,GustSpeedMaxMPH,PrecipitationSumIn
2013-9-1,85,68,54,59,54,49,85,64,34,29.91,29.79,7,1,7,0.00
2013-9-2,81,69,58,62,55,49,79,62,40,29.93,29.87,5,0,5,0.00
2013-9-3,82,69,58,60,55,52,89,65,40,30.00,29.92,6,1,6,0.00
2013-9-4,78,67,56,60,56,51,87,69,50,30.04,29.98,4,0,5,0.00
2013-9-5,62,59,58,58,55,54,92,88,79,30.05,29.99,5,1,5,0.00
2013-9-6,73,64,55,62,57,51,93,81,58,30.14,30.05,6,1,6,0.00
2013-9-7,77,63,51,62,56,48,93,78,56,30.09,29.93,5,1,5,0.00
2013-9-8,82,70,54,64,58,51,90,68,44,30.06,29.96,7,1,7,0.06
2013-9-9,81,68,54,63,58,50,89,72,52,30.02,29.89,7,1,7,0.00
2013-9-10,87,70,62,68,62,58,91,76,51,29.90,29.74,8,1,8,0.00
2013-9-11,91,72,55,68,60,51,90,69,38,29.95,29.79,5,1,5,0.00
2013-9-12,81,68,56,66,60,52,90,76,59,30.00,29.89,0,0,0,0.00
2013-9-13,74,64,56,64,59,53,91,82,69,29.97,29.81,0,0,0,0.00
2013-9-14,77,65,58,65,60,55,94,83,64,29.83,29.70,0,0,0,0.00
2013-9-15,70,62,58,62,58,55,92,85,75,29.90,29.72,0,0,0,0.01
2013-9-16,75,64,58,60,56,54,88,77,56,29.98,29.88,0,0,0,0.00
2013-9-17,70,61,55,57,52,48,91,74,50,30.02,29.85,0,0,0,0.00
2013-9-18,73,60,48,58,50,42,91,72,46,30.10,29.98,0,0,0,0.01
2013-9-19,77,58,41,57,48,38,89,71,46,29.99,29.77,0,0,0,0.00
2013-9-20,74,58,45,57,50,41,89,77,55,29.77,29.66,0,0,0,0.03
2013-9-21,69,60,54,58,54,50,91,79,57,29.80,29.67,0,0,0,0.01
2013-9-22,60,57,54,56,53,51,91,86,76,29.88,29.70,0,0,0,0.22
2013-9-23,64,57,53,57,53,50,91,87,75,29.99,29.88,0,0,0,0.51
2013-9-24,62,55,50,54,51,46,92,86,70,29.98,29.86,0,0,0,0.38
2013-9-25,61,53,47,53,48,43,91,82,62,30.03,29.86,0,0,0,0.04
2013-9-26,65,54,45,53,47,42,92,78,55,30.16,30.03,0,0,0,0.01
2013-9-28,66,59,52,57,54,49,91,84,72,29.78,29.51,0,0,0,1.10
2013-9-29,57,54,52,54,51,48,93,89,83,29.72,29.43,0,0,0,1.31
2013-9-30,59,53,51,54,49,46,89,85,78,30.01,29.64,0,0,0,0.59